[[{"header":{"parameterUnit":"m.s-1","parameterCategory":1,"la1":30.2991,"la2":30.254,"lo1":-89.0895,"lo2":-89.0444,"dy":0.0017,"dx":0.0017,"nx":28,"ny":28,"refTime":"2025-11-16T03:00:00:Z","depth":0,"parameterNumber":2,"parameterNumberName":"U-component_of_WINDS"},"data":[0,0,0,0,0,0,0,0,0,0,0,0,0,0,0,0,0,0,0,0,0,0,0,0,0,0,0,0,0,0,0,0,0,0,0,0,0,0,0,0,0,0,0,0,0,0,0,0,0,0,0,0,0,0,0,0,0,0,1.9302,1.9303,0,1.9389,1.9389,1.939,1.9376,1.9375,1.9373,1.9372,1.9461,1.9465,1.9469,0,0,0,0,0,0,0,0,0,0,0,0,0,1.9127,1.913,1.9302,1.9303,1.9304,1.9388,1.939,1.9391,1.9377,1.9375,1.9373,1.9371,1.946,1.9464,1.9469,0,0,0,0,0,0,0,0,0,0,0,0,0,1.9207,1.9131,1.9302,1.9307,1.9309,1.9388,1.939,1.9391,1.9377,1.9375,1.9373,1.937,1.9458,1.9464,1.947,1.9549,0,0,1.9487,1.9489,0,0,0,0,0,0,0,0,1.9202,1.9213,1.9306,1.9307,1.9309,1.9369,1.936,1.9444,1.9378,1.9351,1.9372,1.9369,1.9433,1.944,1.9461,1.9553,1.9557,1.9487,1.9491,1.9493,1.9495,0,0,0,0,0,0,0,1.9197,1.921,1.9336,1.9307,1.9309,1.9306,1.9315,1.9376,1.9403,1.9353,1.9352,1.9363,1.9433,1.9456,1.9463,1.9558,1.9487,1.9492,1.9496,1.9498,1.9721,1.9723,0,0,0,0,0,0,1.919,1.9205,1.9334,1.9339,1.9249,1.9311,1.9321,1.9352,1.9403,1.9408,1.9365,1.9362,1.9447,1.9457,1.9466,1.9563,1.9493,1.9498,1.9502,1.9718,1.9721,1.9724,0,0,0,0,0,0,1.9186,1.9201,1.933,1.9272,1.9288,1.9316,1.9352,1.9355,1.9378,1.9411,1.9416,1.9383,1.9446,1.9458,1.9529,1.9566,1.9501,1.9506,1.9715,1.9719,1.9723,1.9757,0,0,0,0,0,0,1.9181,1.92,1.923,1.9273,1.9291,1.9391,1.9354,1.9358,1.9388,1.9385,1.943,1.9435,1.9445,1.952,1.9534,1.9572,1.951,1.9712,1.9717,1.9722,1.9752,1.9761,1.9769,0,0,0,0,0,1.9175,1.9236,1.9232,1.9247,1.9329,1.9393,1.9404,1.9414,1.9391,1.9421,1.9443,1.9434,1.956,1.9528,1.9543,1.9584,1.971,1.9716,1.9721,1.9749,1.9759,1.9769,0,0,0,0,0,0,1.9198,1.9242,1.9237,1.9315,1.935,1.939,1.9429,1.9425,1.9468,1.9463,1.9475,1.9485,1.9556,1.9577,1.9541,1.9664,1.9632,1.9641,1.9647,1.9658,1.9666,1.9659,1.9515,0,0,0,0,0,1.9212,1.9259,1.9295,1.936,1.9378,1.9401,1.9429,1.9434,1.9471,1.9486,1.9513,1.955,1.9598,1.9629,1.9675,1.9756,1.9765,1.9791,1.9799,1.9806,1.9813,1.9858,1.987,1.9743,1.9743,1.9743,0,0,1.9241,1.9271,1.93,1.9366,1.9394,1.9443,1.9414,1.9467,1.9504,1.9494,1.9562,1.9583,1.9625,1.9701,1.9736,1.9721,1.9851,1.9813,1.9818,1.9822,1.9865,1.9877,1.9888,1.9747,1.9746,1.9745,0,0,1.932,1.9347,1.9404,1.9433,1.9476,1.9491,1.9504,1.9546,1.9559,1.9628,1.9622,1.9666,1.9748,1.9779,1.9805,1.9896,1.9889,1.9911,1.9953,1.9996,2.0006,2.0015,2.0048,2.0059,1.9918,1.9918,1.9919,0,1.9351,1.9424,1.9434,1.9488,1.9517,1.9511,1.9569,1.9597,1.9653,1.9673,1.9655,1.9759,1.9787,1.987,1.9892,1.9913,1.9929,1.9905,2.0004,2.0013,2.0022,2.0053,2.0065,1.9921,1.9921,1.992,1.992,0,1.9461,1.9512,1.9553,1.9606,1.964,1.9696,1.9715,1.9748,1.975,1.9767,1.9837,1.987,1.9923,1.9943,1.9946,2.0027,2.0016,2.0001,1.9969,2.0036,2.0065,2.0077,1.9924,1.9923,1.9923,1.9922,0,0,1.9555,1.9614,1.9629,1.9653,1.9701,1.9741,1.9797,1.9848,1.9876,1.9915,1.9962,2.0033,2.0019,2.0049,2.0056,2.0094,2.0164,2.0074,2.0075,2.0089,2.0255,2.0265,2.0279,2.016,2.0162,2.0164,2.0251,0,1.9638,1.9736,1.9747,1.9834,1.9882,1.9877,1.9926,1.9961,1.9978,2.0022,2.0041,2.0091,2.007,2.0087,2.0125,2.0147,2.0197,2.0141,2.0204,2.0206,2.0192,2.0294,2.0305,2.0386,2.0263,2.0265,2.0266,0,1.9747,1.9789,1.9881,1.9923,1.9943,1.9986,2.0035,2.0076,2.0116,2.0126,2.0159,2.0161,2.0219,2.0185,2.0266,2.0228,2.0254,2.0269,2.0272,2.0278,2.0239,2.0302,2.0412,2.0424,2.0284,2.0283,2.0282,0,1.9806,1.9886,1.9952,1.9973,2.0023,2.0053,2.0076,2.0113,2.0143,2.0186,2.0205,2.0254,2.0281,2.0319,2.0334,2.0308,2.0414,2.0381,2.0424,2.0424,2.0445,2.0444,2.0561,2.0464,2.0464,2.0464,2.0463,0,1.9897,1.9954,1.9979,2.0019,2.0083,2.0095,2.0158,2.0179,2.0212,2.0257,2.0256,2.0298,2.0316,2.0361,2.0373,2.0438,2.045,2.046,2.0462,2.0459,2.0458,2.0476,2.0471,2.0467,2.0466,2.0465,2.0465,0,1.9974,1.9993,2.0064,2.0105,2.0117,2.0162,2.0197,2.0237,2.0254,2.0311,2.0325,2.0352,2.0405,2.0424,2.0488,2.0497,2.0571,2.057,2.0558,2.0558,2.06,2.0595,2.0731,2.075,2.0642,2.0643,2.0644,0,2.003,2.0073,2.0119,2.0149,2.0172,2.022,2.0251,2.0265,2.0298,2.0346,2.038,2.0433,2.0475,2.056,2.0586,2.0635,2.0634,2.0679,2.0642,2.0637,2.0634,2.0631,2.0635,2.0685,2.0686,2.0687,2.0688,0,2.0128,2.0135,2.0179,2.0228,2.0264,2.0303,2.0341,2.0365,2.0385,2.0422,2.0476,2.0509,2.0575,2.0627,2.0678,2.0701,2.0698,2.07,2.0712,2.0709,2.07,2.0705,2.0576,2.0696,2.0695,2.0695,2.0694,2.0694,2.0195,2.0233,2.0272,2.0322,2.0351,2.0387,2.0425,2.0448,2.0493,2.0547,2.0553,2.0611,2.0651,2.0718,2.0744,2.079,2.0778,2.0796,2.08,2.0804,2.0807,2.0694,2.08,2.0799,2.0799,2.0799,2.0799,0,2.0292,2.0317,2.0363,2.0415,2.0454,2.0448,2.0489,2.0523,2.0574,2.061,2.0652,2.0715,2.0766,2.0796,2.0847,2.0878,2.0878,2.0891,2.0888,2.0893,2.0815,2.0799,2.089,2.089,2.089,2.089,2.089,2.089,2.0347,2.0412,2.0424,2.0503,2.0528,2.0584,2.0608,2.0641,2.067,2.0739,2.0782,2.0801,2.0835,2.0889,2.0936,2.0943,2.0962,2.0976,2.0982,2.0908,2.0899,2.089,2.0875,2.098,2.098,2.1057,2.1057,2.1058]},{"header":{"parameterUnit":"m.s-1","parameterCategory":1,"la1":30.2991,"la2":30.254,"lo1":-89.0895,"lo2":-89.0444,"dy":0.0017,"dx":0.0017,"nx":28,"ny":28,"refTime":"2025-11-16T03:00:00:Z","depth":0,"parameterNumber":3,"parameterNumberName":"V-component_of_WINDS"},"data":[0,0,0,0,0,0,0,0,0,0,0,0,0,0,0,0,0,0,0,0,0,0,0,0,0,0,0,0,0,0,0,0,0,0,0,0,0,0,0,0,0,0,0,0,0,0,0,0,0,0,0,0,0,0,0,0,0,0,-0.1228,-0.1229,0,-0.1274,-0.1274,-0.1275,-0.1309,-0.131,-0.131,-0.131,-0.1353,-0.1354,-0.1355,0,0,0,0,0,0,0,0,0,0,0,0,0,-0.1171,-0.1172,-0.1228,-0.1229,-0.1229,-0.1274,-0.1274,-0.1275,-0.1309,-0.131,-0.131,-0.131,-0.1353,-0.1354,-0.1355,0,0,0,0,0,0,0,0,0,0,0,0,0,-0.1204,-0.1172,-0.1228,-0.1252,-0.1255,-0.1273,-0.1274,-0.1275,-0.1309,-0.131,-0.131,-0.1311,-0.1353,-0.1354,-0.1355,-0.1353,0,0,-0.1359,-0.136,0,0,0,0,0,0,0,0,-0.1202,-0.1206,-0.1248,-0.125,-0.1253,-0.1286,-0.127,-0.1301,-0.1309,-0.1288,-0.131,-0.1311,-0.133,-0.1334,-0.1341,-0.1355,-0.1357,-0.1359,-0.136,-0.136,-0.1361,0,0,0,0,0,0,0,-0.12,-0.1204,-0.1246,-0.1248,-0.1252,-0.126,-0.1266,-0.1276,-0.1306,-0.129,-0.1293,-0.1298,-0.1332,-0.134,-0.1342,-0.1357,-0.1359,-0.136,-0.1361,-0.1361,-0.1376,-0.1376,0,0,0,0,0,0,-0.1194,-0.1202,-0.1245,-0.1247,-0.1229,-0.1261,-0.1267,-0.1275,-0.1306,-0.1311,-0.1297,-0.1299,-0.1337,-0.1341,-0.1344,-0.1345,-0.136,-0.1362,-0.1362,-0.1376,-0.1376,-0.1375,0,0,0,0,0,0,-0.1193,-0.1198,-0.1243,-0.1226,-0.1232,-0.1262,-0.1271,-0.1276,-0.1283,-0.1311,-0.1317,-0.13,-0.1338,-0.1342,-0.1352,-0.1347,-0.1362,-0.1363,-0.1377,-0.1376,-0.1376,-0.1347,0,0,0,0,0,0,-0.1191,-0.1197,-0.1196,-0.1225,-0.1233,-0.125,-0.127,-0.1276,-0.1286,-0.1289,-0.1315,-0.132,-0.1338,-0.1349,-0.1353,-0.1349,-0.1364,-0.1377,-0.1376,-0.1376,-0.1349,-0.1346,-0.1343,0,0,0,0,0,-0.1189,-0.1185,-0.1196,-0.1201,-0.1233,-0.1249,-0.1254,-0.1276,-0.1285,-0.1285,-0.1304,-0.1319,-0.1348,-0.135,-0.1354,-0.1351,-0.1378,-0.1377,-0.1376,-0.135,-0.1346,-0.1343,0,0,0,0,0,0,-0.1152,-0.1189,-0.1201,-0.1207,-0.1225,-0.1255,-0.1255,-0.1271,-0.1286,-0.1288,-0.1314,-0.132,-0.1327,-0.134,-0.1342,-0.1352,-0.1365,-0.1365,-0.1343,-0.134,-0.1338,-0.1334,-0.1365,0,0,0,0,0,-0.1145,-0.1156,-0.1187,-0.1189,-0.1198,-0.1225,-0.1233,-0.1249,-0.1269,-0.1276,-0.1295,-0.1313,-0.1326,-0.1334,-0.1347,-0.1351,-0.1358,-0.1351,-0.1349,-0.1346,-0.1346,-0.1352,-0.1349,-0.1373,-0.1373,-0.1373,0,0,-0.1129,-0.1151,-0.1155,-0.1182,-0.1198,-0.1209,-0.1231,-0.1241,-0.125,-0.1277,-0.1288,-0.1303,-0.1325,-0.1332,-0.1336,-0.1343,-0.1341,-0.1345,-0.1343,-0.1344,-0.135,-0.1348,-0.1346,-0.1372,-0.1372,-0.1372,0,0,-0.1107,-0.1124,-0.1128,-0.1145,-0.117,-0.1189,-0.119,-0.1219,-0.1231,-0.1243,-0.1265,-0.1275,-0.1297,-0.1313,-0.1323,-0.1312,-0.1327,-0.1315,-0.1301,-0.1306,-0.1304,-0.1303,-0.13,-0.1299,-0.1315,-0.1315,-0.1315,0,-0.1084,-0.1102,-0.1128,-0.1138,-0.115,-0.1179,-0.1184,-0.1199,-0.1226,-0.1234,-0.1241,-0.1272,-0.1288,-0.1301,-0.1299,-0.1306,-0.1309,-0.1312,-0.1303,-0.1301,-0.13,-0.1298,-0.1297,-0.1313,-0.1313,-0.1314,-0.1314,0,-0.1074,-0.1086,-0.1087,-0.1115,-0.1127,-0.1135,-0.1163,-0.1172,-0.1189,-0.1207,-0.122,-0.1242,-0.1262,-0.1266,-0.1281,-0.1282,-0.1286,-0.1298,-0.131,-0.1296,-0.1295,-0.1294,-0.1311,-0.1312,-0.1312,-0.1312,0,0,-0.1026,-0.1072,-0.1072,-0.1087,-0.1118,-0.1129,-0.1139,-0.116,-0.1168,-0.1187,-0.1197,-0.1217,-0.123,-0.1242,-0.1259,-0.1264,-0.1256,-0.1275,-0.1276,-0.1272,-0.1261,-0.1252,-0.125,-0.1267,-0.1267,-0.1266,-0.1259,0,-0.1009,-0.1029,-0.1055,-0.1067,-0.108,-0.1109,-0.1118,-0.1139,-0.1157,-0.1171,-0.1191,-0.1206,-0.122,-0.1228,-0.1234,-0.1255,-0.1254,-0.1256,-0.1276,-0.1276,-0.127,-0.1249,-0.1239,-0.1231,-0.1259,-0.1259,-0.1259,0,-0.0991,-0.1011,-0.1025,-0.1059,-0.1065,-0.1073,-0.1096,-0.1109,-0.1134,-0.1147,-0.1163,-0.1183,-0.1196,-0.1209,-0.1228,-0.1229,-0.1239,-0.1251,-0.1251,-0.1254,-0.1266,-0.1251,-0.1229,-0.1228,-0.1258,-0.1258,-0.1258,0,-0.0957,-0.0987,-0.1,-0.1012,-0.1051,-0.1056,-0.1073,-0.1098,-0.1111,-0.1131,-0.114,-0.1161,-0.1173,-0.1189,-0.1215,-0.1221,-0.1232,-0.1246,-0.1244,-0.1243,-0.1244,-0.1243,-0.1223,-0.125,-0.125,-0.125,-0.125,0,-0.0935,-0.0942,-0.0986,-0.0993,-0.1003,-0.1034,-0.1043,-0.1062,-0.1086,-0.1098,-0.1124,-0.1136,-0.1169,-0.1184,-0.1204,-0.1218,-0.1223,-0.1235,-0.124,-0.1232,-0.1231,-0.1239,-0.124,-0.125,-0.125,-0.125,-0.125,0,-0.0898,-0.0927,-0.0943,-0.0981,-0.099,-0.0996,-0.1028,-0.1037,-0.1059,-0.1075,-0.108,-0.1114,-0.1134,-0.1162,-0.1189,-0.1203,-0.1215,-0.1223,-0.1206,-0.121,-0.1207,-0.1207,-0.119,-0.119,-0.1217,-0.1217,-0.1216,0,-0.0882,-0.0888,-0.0928,-0.0939,-0.0956,-0.0973,-0.0987,-0.1018,-0.1031,-0.1063,-0.1069,-0.1091,-0.1111,-0.1142,-0.1168,-0.1191,-0.12,-0.1193,-0.1203,-0.1196,-0.1201,-0.12,-0.1202,-0.119,-0.1189,-0.1189,-0.1188,0,-0.0851,-0.0866,-0.0885,-0.0911,-0.0927,-0.0948,-0.0971,-0.0978,-0.1015,-0.1029,-0.1051,-0.1066,-0.1097,-0.1119,-0.1146,-0.1163,-0.1182,-0.1186,-0.1187,-0.1179,-0.117,-0.1176,-0.12,-0.1185,-0.1186,-0.1186,-0.1186,-0.1186,-0.0824,-0.0833,-0.0863,-0.0885,-0.0906,-0.0927,-0.0939,-0.0963,-0.0982,-0.1011,-0.1028,-0.105,-0.1078,-0.1116,-0.1133,-0.1151,-0.1158,-0.1159,-0.116,-0.1159,-0.1158,-0.1167,-0.1156,-0.1156,-0.1156,-0.1156,-0.1156,0,-0.0796,-0.0818,-0.0838,-0.087,-0.0887,-0.0906,-0.0933,-0.0946,-0.0965,-0.0991,-0.1011,-0.1037,-0.1061,-0.1091,-0.1116,-0.1125,-0.1134,-0.113,-0.113,-0.1134,-0.1149,-0.1146,-0.1122,-0.1122,-0.1122,-0.1122,-0.1122,-0.1122,-0.0783,-0.08,-0.0819,-0.0847,-0.0869,-0.0892,-0.0906,-0.0926,-0.0947,-0.0976,-0.0996,-0.1016,-0.1044,-0.1073,-0.1095,-0.1104,-0.1112,-0.1105,-0.1116,-0.1129,-0.1132,-0.1135,-0.1133,-0.1107,-0.1107,-0.11,-0.11,-0.11]}]]